Location: Unspecified
(52.4292°N, 19.3359°E)
Time: 00:45:47
(UTC+02:00)

A-11 Canister half - Pass Details

Date: 27 May 2024
Orbit: 1515 x 1685 km, 47.2° (Epoch: 19 June)

Event Time Altitude Azimuth Distance (km) Brightness Sun altitude
Rises 05:21:10 0° 271° (W) 4,737 11.0 5.6°
Reaches altitude 10° 05:24:18 10° 268° (W) 3,733 10.5 6.0°
Maximum altitude 05:33:28 61° 191° (SSW) 1,694 9.2 7.3°
Drops below altitude 10° 05:42:29 10° 115° (ESE) 3,672 11.7 8.5°
Sets 05:45:32 0° 112° (ESE) 4,656 12.3 8.9°
